M I D A S
Marine Information and Data Acquisition System
Tripno 1660 of the Zeeleeuw from 2009-03-19 07:30:53 to 2009-03-19 13:03:15
Back to CruiseResearch ActivitiesStationsMapUnderway DataData graphs

EquipmentUnitsComment
TimeDGPSUTC
LatitudeDGPSDM.mWGS84
LongitudeDGPSDM.mWGS84
TemperatureSBE03/SBE38deg celciusITS90
ConductivitySBE21S/mITS90
SalinitySBE21 Practical Salinity Units
ChlorophylAChelsea fluorimeterg/lCalibrated in Aceton
Missing or incorrect values are displayed as -999
Sea surface data collected by the RV Zeeleeuw from 2009-03-19 07:24:05 to 2009-03-19 13:13:15
Time Latitude Longitude Temperature Conductivity Salinity ChlorophylA
2009-03-19 07:25:13 51°13.675 2°55.904 -999 0.10272 0.57043 -1.244337
2009-03-19 07:26:13 51°13.692 2°55.826 -999 0.10272 0.570482 -1.279161
2009-03-19 07:27:13 51°13.702 2°55.763 -999 0.10272 0.570533 -1.279161
2009-03-19 07:28:11 51°13.706 2°55.755 -999 0.10272 0.570615 -1.279161
2009-03-19 07:29:09 51°13.708 2°55.762 -999 0.10272 0.570625 -1.279161
2009-03-19 07:30:09 51°13.707 2°55.758 -999 0.10272 0.570696 -1.279161
2009-03-19 07:31:09 51°13.735 2°55.727 -999 0.10272 0.570748 -1.279161
2009-03-19 07:32:09 51°13.788 2°55.671 -999 0.10272 0.57086 -1.279161
2009-03-19 07:33:09 51°13.853 2°55.629 -999 0.10272 0.570901 -1.279161
2009-03-19 07:34:09 51°13.904 2°55.636 -999 0.10272 0.571004 -1.279161
2009-03-19 07:35:09 51°13.941 2°55.63 -999 0.10272 0.571014 -1.244337
2009-03-19 07:36:09 51°13.964 2°55.613 -999 0.10272 0.571055 -1.279161
2009-03-19 07:37:09 51°14.035 2°55.539 -999 0.10272 0.571075 -1.279161
2009-03-19 07:38:10 51°14.159 2°55.4 -999 0.10272 0.571055 -1.244337
2009-03-19 07:39:10 51°14.282 2°55.218 -999 0.10272 0.571198 -1.244337
2009-03-19 07:40:09 51°14.383 2°54.977 -999 0.10272 0.571239 -1.279161
2009-03-19 07:41:09 51°14.513 2°54.727 -999 0.10272 0.571352 -1.279161
2009-03-19 07:42:09 51°14.671 2°54.521 -999 0.10272 0.571424 -1.279161
2009-03-19 07:43:09 51°14.84 2°54.348 -999 0.10272 0.571516 -1.279161
2009-03-19 07:44:10 51°15.012 2°54.176 -999 0.10272 0.571578 -1.244337
2009-03-19 07:45:09 51°15.183 2°54.018 -999 0.10272 0.57165 -1.279161
2009-03-19 07:46:09 51°15.361 2°53.864 -999 0.10272 0.571701 -1.279161
2009-03-19 07:47:09 51°15.54 2°53.711 -999 0.10272 0.571753 -1.279161
2009-03-19 07:48:09 51°15.717 2°53.558 -999 0.10272 0.571804 -1.279161
2009-03-19 07:49:09 51°15.895 2°53.405 -999 0.10272 0.571855 -1.279161
2009-03-19 07:50:09 51°16.074 2°53.253 -999 0.10272 0.571907 -1.244337
2009-03-19 07:51:09 51°16.257 2°53.108 -999 0.10272 0.571958 -1.279161
2009-03-19 07:52:09 51°16.44 2°52.971 -999 0.10272 0.57202 -1.279161
2009-03-19 07:53:09 51°16.628 2°52.843 -999 0.10272 0.572092 -1.244337
2009-03-19 07:54:09 51°16.816 2°52.722 -999 0.10272 0.572164 -1.279161
2009-03-19 07:55:09 51°17.005 2°52.604 -999 0.10272 0.572246 -1.244337
2009-03-19 07:56:09 51°17.202 2°52.52 -999 0.102617 0.571732 -1.279161
2009-03-19 07:57:09 51°17.404 2°52.457 -999 0.102617 0.571825 -1.279161
2009-03-19 07:58:09 51°17.608 2°52.407 -999 0.102617 0.571907 -1.279161
2009-03-19 07:59:09 51°17.814 2°52.378 -999 0.102617 0.571989 -1.279161
2009-03-19 08:00:09 51°18.022 2°52.383 -999 0.102617 0.572092 -1.279161
2009-03-19 08:01:09 51°18.229 2°52.388 -999 0.102617 0.572165 -1.279161
2009-03-19 08:02:09 51°18.437 2°52.384 -999 0.102617 0.572247 -1.279161
2009-03-19 08:03:09 51°18.644 2°52.373 -999 0.102617 0.572319 -1.279161
2009-03-19 08:04:09 51°18.85 2°52.36 -999 0.102617 0.572381 -1.279161
2009-03-19 08:05:09 51°19.057 2°52.348 -999 0.102617 0.572453 -1.279161
2009-03-19 08:06:09 51°19.266 2°52.336 -999 0.102617 0.572515 -1.279161
2009-03-19 08:07:09 51°19.475 2°52.321 -999 0.102617 0.572567 -1.279161
2009-03-19 08:08:10 51°19.688 2°52.315 -999 0.102617 0.572619 -1.279161
2009-03-19 08:09:09 51°19.894 2°52.317 -999 0.102617 0.57268 -1.279161
2009-03-19 08:10:09 51°20.102 2°52.332 -999 0.102617 0.572753 -1.279161
2009-03-19 08:11:09 51°20.31 2°52.347 -999 0.102617 0.572815 -1.279161
2009-03-19 08:12:09 51°20.518 2°52.357 -999 0.102514 0.572289 -1.279161
2009-03-19 08:13:09 51°20.726 2°52.365 -999 0.102514 0.572341 -1.279161
2009-03-19 08:14:09 51°20.936 2°52.383 -999 0.102514 0.572403 -1.279161
2009-03-19 08:15:09 51°21.144 2°52.416 -999 0.102514 0.572475 -1.279161
2009-03-19 08:16:09 51°21.351 2°52.455 -999 0.102514 0.572527 -1.279161
2009-03-19 08:17:09 51°21.559 2°52.497 -999 0.102514 0.572578 -1.279161
2009-03-19 08:18:09 51°21.767 2°52.541 -999 0.102514 0.572641 -1.279161
2009-03-19 08:19:09 51°21.973 2°52.592 -999 0.102514 0.572713 -1.279161
2009-03-19 08:20:09 51°22.179 2°52.646 -999 0.102514 0.572754 -1.279161
2009-03-19 08:21:09 51°22.386 2°52.691 -999 0.102514 0.572816 -1.279161
2009-03-19 08:22:09 51°22.592 2°52.743 -999 0.102514 0.572878 -1.279161
2009-03-19 08:23:09 51°22.797 2°52.799 -999 0.102514 0.572941 -1.279161
2009-03-19 08:24:09 51°23.004 2°52.862 -999 0.102514 0.573013 -1.279161
2009-03-19 08:25:09 51°23.21 2°52.916 -999 0.102514 0.573055 -1.279161
2009-03-19 08:26:09 51°23.416 2°52.982 -999 0.102514 0.573117 -1.279161
2009-03-19 08:27:09 51°23.623 2°53.049 -999 0.102514 0.573169 -1.279161
2009-03-19 08:28:10 51°23.834 2°53.112 -999 0.102514 0.573231 -1.279161
2009-03-19 08:29:09 51°24.037 2°53.175 -999 0.102514 0.573272 -1.279161
2009-03-19 08:30:09 51°24.244 2°53.24 -999 0.102514 0.573314 -1.279161
2009-03-19 08:31:09 51°24.451 2°53.296 -999 0.102514 0.573355 -1.244337
2009-03-19 08:32:09 51°24.657 2°53.348 -999 0.102514 0.573376 -1.279161
2009-03-19 08:33:09 51°24.863 2°53.405 -999 0.102514 0.573417 -1.279161
2009-03-19 08:34:09 51°25.068 2°53.471 -999 0.102514 0.573438 -1.279161
2009-03-19 08:35:09 51°25.274 2°53.532 -999 0.102514 0.573469 -1.279161
2009-03-19 08:36:09 51°25.48 2°53.598 -999 0.102514 0.573521 -1.279161
2009-03-19 08:37:09 51°25.686 2°53.655 -999 0.102514 0.573542 -1.279161
2009-03-19 08:38:09 51°25.892 2°53.718 -999 0.102514 0.573615 -1.279161
2009-03-19 08:39:09 51°26.097 2°53.78 -999 0.102514 0.57377 -1.279161
2009-03-19 08:40:09 51°26.302 2°53.853 -999 0.102514 0.573978 -1.279161
2009-03-19 08:41:09 51°26.507 2°53.918 -999 0.102514 0.574186 -1.279161
2009-03-19 08:42:09 51°26.713 2°53.977 -999 0.102514 0.574394 -1.279161
2009-03-19 08:43:09 51°26.919 2°54.037 -999 0.102411 0.574002 -1.279161
2009-03-19 08:44:09 51°27.125 2°54.095 -999 0.102411 0.574221 -1.279161
2009-03-19 08:45:09 51°27.33 2°54.162 -999 0.102411 0.574524 -1.279161
2009-03-19 08:46:09 51°27.537 2°54.225 -999 0.102411 0.5749 -1.279161
2009-03-19 08:47:09 51°27.745 2°54.284 -999 0.102411 0.575433 -1.279161
2009-03-19 08:48:09 51°27.954 2°54.34 -999 0.102308 0.575219 -1.279161
2009-03-19 08:49:10 51°28.167 2°54.392 -999 0.102308 0.575753 -1.279161
2009-03-19 08:50:09 51°28.371 2°54.437 -999 0.102308 0.576205 -1.279161
2009-03-19 08:51:09 51°28.578 2°54.486 -999 0.102206 0.576044 -1.279161
2009-03-19 08:52:09 51°28.785 2°54.542 -999 0.102206 0.576412 -1.279161
2009-03-19 08:53:09 51°28.991 2°54.609 -999 0.102103 0.576135 -1.244337
2009-03-19 08:54:09 51°29.197 2°54.662 -999 0.102 0.575783 -1.279161
2009-03-19 08:55:09 51°29.403 2°54.713 -999 0.102 0.576037 -1.279161
2009-03-19 08:56:09 51°29.608 2°54.774 -999 0.101897 0.575653 -1.279161
2009-03-19 08:57:09 51°29.815 2°54.837 -999 0.101794 0.575248 -1.279161
2009-03-19 08:58:09 51°30.019 2°54.903 -999 0.101794 0.575428 -1.279161
2009-03-19 08:59:09 51°30.223 2°54.971 -999 0.101691 0.575075 -1.279161
2009-03-19 09:00:09 51°30.43 2°55.025 -999 0.101691 0.575265 -1.279161
2009-03-19 09:01:09 51°30.638 2°55.071 -999 0.101691 0.575424 -1.279161
2009-03-19 09:02:09 51°30.845 2°55.121 -999 0.101588 0.574987 -1.279161
2009-03-19 09:03:09 51°31.054 2°55.172 -999 0.101588 0.575156 -1.279161
2009-03-19 09:04:09 51°31.265 2°55.215 -999 0.101485 0.574708 -1.279161
2009-03-19 09:05:09 51°31.477 2°55.248 -999 0.101485 0.574866 -1.279161
2009-03-19 09:06:09 51°31.689 2°55.272 -999 0.101485 0.575014 -1.279161
2009-03-19 09:07:10 51°31.905 2°55.303 -999 0.101382 0.574587 -1.279161
2009-03-19 09:08:09 51°32.113 2°55.326 -999 0.101382 0.574746 -1.279161
2009-03-19 09:09:10 51°32.269 2°55.358 -999 0.101279 0.574297 -1.279161
2009-03-19 09:10:09 51°32.322 2°55.409 -999 0.101279 0.574488 -1.279161
2009-03-19 09:11:09 51°32.33 2°55.419 -999 0.101176 0.574039 -1.279161
2009-03-19 09:12:09 51°32.333 2°55.418 -999 0.101176 0.574198 -1.279161
2009-03-19 09:13:09 51°32.334 2°55.414 -999 0.101176 0.574314 -1.279161
2009-03-19 09:14:09 51°32.336 2°55.407 -999 0.101074 0.573822 -1.244337
2009-03-19 09:15:09 51°32.337 2°55.398 -999 0.101074 0.573939 -1.279161
2009-03-19 09:16:09 51°32.339 2°55.387 -999 0.101074 0.574024 -1.279161
2009-03-19 09:17:09 51°32.34 2°55.375 -999 0.100971 0.573489 -1.279161
2009-03-19 09:18:09 51°32.342 2°55.363 -999 0.100971 0.573553 -1.279161
2009-03-19 09:19:09 51°32.344 2°55.351 -999 0.100971 0.573606 -1.279161
2009-03-19 09:20:09 51°32.347 2°55.339 -999 0.100971 0.573669 -1.279161
2009-03-19 09:21:09 51°32.349 2°55.327 -999 0.100868 0.573124 -1.279161
2009-03-19 09:22:09 51°32.35 2°55.315 -999 0.100868 0.573198 -1.279161
2009-03-19 09:23:09 51°32.352 2°55.303 -999 0.100868 0.573273 -1.244337
2009-03-19 09:24:09 51°32.353 2°55.292 -999 0.100868 0.573326 -1.279161
2009-03-19 09:25:09 51°32.355 2°55.28 -999 0.100868 0.573389 -1.279161
2009-03-19 09:26:09 51°32.357 2°55.267 -999 0.100868 0.573453 -1.279161
2009-03-19 09:27:10 51°32.36 2°55.254 -999 0.100765 0.572897 -1.244337
2009-03-19 09:28:09 51°32.363 2°55.239 -999 0.100765 0.57295 -1.244337
2009-03-19 09:29:09 51°32.366 2°55.224 -999 0.100765 0.573003 -1.279161
2009-03-19 09:30:09 51°32.37 2°55.21 -999 0.100765 0.573056 -1.279161
2009-03-19 09:31:09 51°32.373 2°55.195 -999 0.100765 0.573098 -1.244337
2009-03-19 09:32:09 51°32.376 2°55.18 -999 0.100765 0.573151 -1.279161
2009-03-19 09:33:09 51°32.379 2°55.164 -999 0.100765 0.573193 -1.279161
2009-03-19 09:34:09 51°32.382 2°55.149 -999 0.100765 0.573257 -1.279161
2009-03-19 09:35:09 51°32.383 2°55.134 -999 0.100765 0.573331 -1.279161
2009-03-19 09:36:10 51°32.384 2°55.117 -999 0.100662 0.572828 -1.244337
2009-03-19 09:37:09 51°32.386 2°55.102 -999 0.100662 0.572913 -1.279161
2009-03-19 09:38:09 51°32.389 2°55.086 -999 0.100662 0.572987 -1.279161
2009-03-19 09:39:10 51°32.392 2°55.07 -999 0.100662 0.573051 -1.279161
2009-03-19 09:40:10 51°32.395 2°55.053 -999 0.100662 0.573114 -1.244337
2009-03-19 09:41:09 51°32.397 2°55.037 -999 0.100559 0.572557 -1.244337
2009-03-19 09:42:09 51°32.399 2°55.021 -999 0.100559 0.5726 -1.279161
2009-03-19 09:43:10 51°32.401 2°55.006 -999 0.100559 0.572653 -1.279161
2009-03-19 09:44:12 51°32.403 2°54.989 -999 0.100559 0.572695 -1.279161
2009-03-19 09:45:11 51°32.406 2°54.974 -999 0.100559 0.572738 -1.279161
2009-03-19 09:46:10 51°32.408 2°54.959 -999 0.100559 0.572791 -1.279161
2009-03-19 09:47:09 51°32.409 2°54.944 -999 0.100559 0.572833 -1.279161
2009-03-19 09:48:09 51°32.41 2°54.927 -999 0.100559 0.572876 -1.279161
2009-03-19 09:49:09 51°32.411 2°54.91 -999 0.100456 0.572308 -1.279161
2009-03-19 09:50:09 51°32.412 2°54.893 -999 0.100456 0.57235 -1.279161
2009-03-19 09:51:09 51°32.412 2°54.876 -999 0.100456 0.572393 -1.279161
2009-03-19 09:52:10 51°32.413 2°54.859 -999 0.100456 0.572435 -1.279161
2009-03-19 09:53:09 51°32.413 2°54.841 -999 0.100456 0.572478 -1.279161
2009-03-19 09:54:09 51°32.413 2°54.824 -999 0.100456 0.57252 -1.279161
2009-03-19 09:55:09 51°32.412 2°54.807 -999 0.100456 0.572552 -1.279161
2009-03-19 09:56:09 51°32.412 2°54.791 -999 0.100456 0.572595 -1.279161
2009-03-19 09:57:09 51°32.411 2°54.775 -999 0.100456 0.572627 -1.279161
2009-03-19 09:58:09 51°32.41 2°54.759 -999 0.100456 0.572658 -1.279161
2009-03-19 09:59:09 51°32.407 2°54.744 -999 0.100353 0.57208 -1.279161
2009-03-19 10:00:09 51°32.405 2°54.728 -999 0.100353 0.572122 -1.244337
2009-03-19 10:01:09 51°32.404 2°54.711 -999 0.100353 0.572165 -1.279161
2009-03-19 10:02:09 51°32.402 2°54.695 -999 0.100353 0.572239 -1.279161
2009-03-19 10:03:10 51°32.4 2°54.678 -999 0.100353 0.572335 -1.279161
2009-03-19 10:04:10 51°32.397 2°54.66 -999 0.100353 0.57242 -1.279161
2009-03-19 10:05:10 51°32.395 2°54.642 -999 0.100353 0.572505 -1.279161
2009-03-19 10:06:09 51°32.392 2°54.623 -999 0.10025 0.571957 -1.279161
2009-03-19 10:07:09 51°32.389 2°54.603 -999 0.10025 0.572 -1.279161
2009-03-19 10:08:09 51°32.385 2°54.582 -999 0.10025 0.572042 -1.279161
2009-03-19 10:09:09 51°32.382 2°54.562 -999 0.10025 0.572085 -1.279161
2009-03-19 10:10:09 51°32.378 2°54.54 -999 0.10025 0.572117 -1.279161
2009-03-19 10:11:09 51°32.374 2°54.519 -999 0.10025 0.572159 -1.279161
2009-03-19 10:12:09 51°32.371 2°54.499 -999 0.10025 0.572191 -1.279161
2009-03-19 10:13:10 51°32.367 2°54.478 -999 0.10025 0.572234 -1.279161
2009-03-19 10:14:09 51°32.364 2°54.457 -999 0.100147 0.571654 -1.279161
2009-03-19 10:15:09 51°32.36 2°54.435 -999 0.100147 0.571697 -1.279161
2009-03-19 10:16:09 51°32.356 2°54.414 -999 0.100147 0.571728 -1.279161
2009-03-19 10:17:10 51°32.351 2°54.392 -999 0.100147 0.57176 -1.279161
2009-03-19 10:18:09 51°32.346 2°54.37 -999 0.100147 0.571803 -1.279161
2009-03-19 10:19:10 51°32.341 2°54.349 -999 0.100147 0.571856 -1.279161
2009-03-19 10:20:10 51°32.335 2°54.327 -999 0.100147 0.571899 -1.279161
2009-03-19 10:21:10 51°32.329 2°54.307 -999 0.100147 0.571941 -1.279161
2009-03-19 10:22:10 51°32.323 2°54.287 -999 0.100147 0.571984 -1.279161
2009-03-19 10:23:10 51°32.316 2°54.265 -999 0.100044 0.571404 -1.279161
2009-03-19 10:24:10 51°32.31 2°54.244 -999 0.100044 0.571436 -1.279161
2009-03-19 10:25:09 51°32.303 2°54.223 -999 0.100044 0.571457 -1.279161
2009-03-19 10:26:09 51°32.296 2°54.202 -999 0.100044 0.571468 -1.279161
2009-03-19 10:27:09 51°32.284 2°54.193 -999 0.100044 0.571489 -1.279161
2009-03-19 10:28:09 51°32.272 2°54.21 -999 0.100044 0.571499 -1.244337
2009-03-19 10:29:09 51°32.272 2°54.24 -999 0.100044 0.571499 -1.279161
2009-03-19 10:30:09 51°32.286 2°54.278 -999 0.100044 0.571531 -1.279161
2009-03-19 10:31:09 51°32.307 2°54.326 -999 0.100045 0.571595 -1.279161
2009-03-19 10:32:09 51°32.329 2°54.383 -999 0.100045 0.571702 -1.279161
2009-03-19 10:33:09 51°32.355 2°54.442 -999 0.099942 0.571196 -1.279161
2009-03-19 10:34:09 51°32.38 2°54.505 -999 0.099942 0.57126 -1.279161
2009-03-19 10:35:09 51°32.405 2°54.568 -999 0.099942 0.571355 -1.279161
2009-03-19 10:36:10 51°32.432 2°54.632 -999 0.099942 0.571462 -1.279161
2009-03-19 10:37:10 51°32.459 2°54.694 -999 0.099942 0.571558 -1.279161
2009-03-19 10:38:10 51°32.485 2°54.758 -999 0.099839 0.571041 -1.279161
2009-03-19 10:39:10 51°32.513 2°54.823 -999 0.099839 0.571126 -1.279161
2009-03-19 10:40:09 51°32.527 2°54.879 -999 0.099839 0.571222 -1.279161
2009-03-19 10:41:09 51°32.521 2°54.911 -999 0.099736 0.570769 -1.279161
2009-03-19 10:42:09 51°32.508 2°54.925 -999 0.099736 0.570939 -1.279161
2009-03-19 10:43:10 51°32.496 2°54.925 -999 0.099736 0.571088 -1.279161
2009-03-19 10:44:09 51°32.484 2°54.916 -999 0.099736 0.571216 -1.244337
2009-03-19 10:45:10 51°32.472 2°54.9 -999 0.099633 0.570709 -1.279161
2009-03-19 10:46:09 51°32.461 2°54.881 -999 0.099633 0.570805 -1.279161
2009-03-19 10:47:10 51°32.451 2°54.861 -999 0.099633 0.570901 -1.244337
2009-03-19 10:48:09 51°32.441 2°54.839 -999 0.09953 0.570362 -1.244337
2009-03-19 10:49:10 51°32.431 2°54.814 -999 0.09953 0.570415 -1.279161
2009-03-19 10:50:10 51°32.422 2°54.789 -999 0.09953 0.570458 -1.279161
2009-03-19 10:51:10 51°32.412 2°54.764 -999 0.09953 0.570479 -1.279161
2009-03-19 10:52:10 51°32.404 2°54.74 -999 0.09953 0.570469 -1.244337
2009-03-19 10:53:10 51°32.394 2°54.716 -999 0.099427 0.569887 -1.279161
2009-03-19 10:54:10 51°32.384 2°54.693 -999 0.099427 0.569993 -1.279161
2009-03-19 10:55:10 51°32.374 2°54.669 -999 0.099427 0.57011 -1.244337
2009-03-19 10:56:10 51°32.364 2°54.646 -999 0.099427 0.570217 -1.279161
2009-03-19 10:57:10 51°32.353 2°54.622 -999 0.099427 0.570334 -1.279161
2009-03-19 10:58:10 51°32.343 2°54.598 -999 0.099427 0.570473 -1.279161
2009-03-19 10:59:09 51°32.332 2°54.573 -999 0.099324 0.569987 -1.279161
2009-03-19 11:00:10 51°32.322 2°54.547 -999 0.099324 0.570125 -1.279161
2009-03-19 11:01:10 51°32.313 2°54.519 -999 0.099324 0.570275 -1.244337
2009-03-19 11:02:09 51°32.303 2°54.492 -999 0.099324 0.570403 -1.279161
2009-03-19 11:03:10 51°32.293 2°54.463 -999 0.099221 0.569916 -1.244337
2009-03-19 11:04:09 51°32.283 2°54.436 -999 0.099221 0.570044 -1.279161
2009-03-19 11:05:09 51°32.273 2°54.408 -999 0.099221 0.570183 -1.279161
2009-03-19 11:06:10 51°32.263 2°54.381 -999 0.099221 0.570312 -1.279161
2009-03-19 11:07:10 51°32.253 2°54.355 -999 0.099118 0.569814 -1.279161
2009-03-19 11:08:09 51°32.243 2°54.327 -999 0.099118 0.569921 -1.279161
2009-03-19 11:09:09 51°32.233 2°54.3 -999 0.099118 0.569974 -1.279161
2009-03-19 11:10:10 51°32.222 2°54.271 -999 0.099015 0.569519 -1.279161
2009-03-19 11:11:09 51°32.212 2°54.243 -999 0.099015 0.569658 -1.279161
2009-03-19 11:12:10 51°32.201 2°54.214 -999 0.099015 0.569883 -1.279161
2009-03-19 11:13:10 51°32.19 2°54.185 -999 0.099015 0.570043 -1.244337
2009-03-19 11:14:10 51°32.179 2°54.157 -999 0.098913 0.569534 -1.244337
2009-03-19 11:15:10 51°32.167 2°54.128 -999 0.098913 0.569619 -1.244337
2009-03-19 11:16:10 51°32.156 2°54.1 -999 0.098913 0.569877 -1.244337
2009-03-19 11:17:10 51°32.143 2°54.073 -999 0.09881 0.569463 -1.279161
2009-03-19 11:18:10 51°32.084 2°54.067 -999 0.09881 0.569678 -1.279161
2009-03-19 11:19:10 51°31.963 2°54.064 -999 0.09881 0.56985 -1.279161
2009-03-19 11:20:09 51°31.826 2°54.06 -999 0.09881 0.569968 -1.279161
2009-03-19 11:21:10 51°31.664 2°54.046 -999 0.098707 0.569489 -1.279161
2009-03-19 11:22:09 51°31.504 2°54.027 -999 0.098707 0.569597 -1.279161
2009-03-19 11:23:10 51°31.335 2°54.009 -999 0.098707 0.569747 -1.279161
2009-03-19 11:24:09 51°31.167 2°53.992 -999 0.098707 0.569919 -1.279161
2009-03-19 11:25:09 51°30.996 2°53.973 -999 0.098604 0.569462 -1.279161
2009-03-19 11:26:09 51°30.822 2°53.954 -999 0.098604 0.569602 -1.279161
2009-03-19 11:27:09 51°30.644 2°53.932 -999 0.098604 0.569817 -1.279161
2009-03-19 11:28:09 51°30.462 2°53.913 -999 0.098604 0.569893 -1.279161
2009-03-19 11:29:09 51°30.266 2°53.891 -999 0.098604 0.570022 -1.244337
2009-03-19 11:30:09 51°30.063 2°53.861 -999 0.098604 0.570098 -1.279161
2009-03-19 11:31:09 51°29.856 2°53.829 -999 0.098501 0.569575 -1.244337
2009-03-19 11:32:09 51°29.644 2°53.795 -999 0.098501 0.569607 -1.279161
2009-03-19 11:33:09 51°29.432 2°53.761 -999 0.098501 0.569694 -1.279161
2009-03-19 11:34:09 51°29.219 2°53.731 -999 0.098501 0.569769 -1.279161
2009-03-19 11:35:09 51°29.006 2°53.701 -999 0.098501 0.569855 -1.279161
2009-03-19 11:36:09 51°28.794 2°53.677 -999 0.098501 0.56992 -1.279161
2009-03-19 11:37:09 51°28.581 2°53.648 -999 0.098501 0.570006 -1.279161
2009-03-19 11:38:09 51°28.367 2°53.619 -999 0.098501 0.570093 -1.279161
2009-03-19 11:39:09 51°28.154 2°53.589 -999 0.098501 0.570201 -1.279161
2009-03-19 11:40:09 51°27.941 2°53.557 -999 0.098398 0.569678 -1.279161
2009-03-19 11:41:09 51°27.725 2°53.527 -999 0.098398 0.569764 -1.279161
2009-03-19 11:42:09 51°27.51 2°53.495 -999 0.098398 0.569861 -1.279161
2009-03-19 11:43:09 51°27.295 2°53.466 -999 0.098398 0.569959 -1.279161
2009-03-19 11:44:09 51°27.08 2°53.433 -999 0.098398 0.570056 -1.279161
2009-03-19 11:45:09 51°26.865 2°53.399 -999 0.098398 0.570153 -1.279161
2009-03-19 11:46:09 51°26.649 2°53.367 -999 0.098398 0.570261 -1.244337
2009-03-19 11:47:09 51°26.435 2°53.345 -999 0.098295 0.569738 -1.279161
2009-03-19 11:48:09 51°26.223 2°53.326 -999 0.098295 0.569846 -1.279161
2009-03-19 11:49:09 51°26.009 2°53.31 -999 0.098295 0.569965 -1.279161
2009-03-19 11:50:09 51°25.794 2°53.279 -999 0.098295 0.570019 -1.279161
2009-03-19 11:51:09 51°25.581 2°53.246 -999 0.098295 0.570095 -1.244337
2009-03-19 11:52:09 51°25.367 2°53.209 -999 0.098295 0.570225 -1.279161
2009-03-19 11:53:09 51°25.154 2°53.171 -999 0.098295 0.570355 -1.279161
2009-03-19 11:54:09 51°24.94 2°53.131 -999 0.098192 0.569852 -1.279161
2009-03-19 11:55:09 51°24.726 2°53.091 -999 0.098192 0.569982 -1.279161
2009-03-19 11:56:09 51°24.511 2°53.037 -999 0.098192 0.570091 -1.279161
2009-03-19 11:57:09 51°24.297 2°52.981 -999 0.098192 0.570221 -1.279161
2009-03-19 11:58:09 51°24.107 2°52.925 -999 0.098192 0.570308 -1.279161
2009-03-19 11:59:09 51°23.99 2°52.893 -999 0.098192 0.570394 -1.279161
2009-03-19 12:00:09 51°23.886 2°52.848 -999 0.098089 0.56988 -1.279161
2009-03-19 12:01:09 51°23.782 2°52.814 -999 0.098089 0.569989 -1.279161
2009-03-19 12:02:09 51°23.714 2°52.8 -999 0.098089 0.570087 -1.244337
2009-03-19 12:03:09 51°23.641 2°52.792 -999 0.098089 0.570195 -1.279161
2009-03-19 12:04:09 51°23.532 2°52.769 -999 0.098089 0.570326 -1.279161
2009-03-19 12:05:09 51°23.412 2°52.742 -999 0.098089 0.570434 -1.279161
2009-03-19 12:06:09 51°23.291 2°52.712 -999 0.098089 0.570554 -1.279161
2009-03-19 12:07:09 51°23.172 2°52.657 -999 0.097986 0.570083 -1.279161
2009-03-19 12:08:09 51°23.054 2°52.587 -999 0.097986 0.570224 -1.279161
2009-03-19 12:09:10 51°22.936 2°52.506 -999 0.097986 0.570333 -1.279161
2009-03-19 12:10:10 51°22.819 2°52.427 -999 0.097986 0.570475 -1.279161
2009-03-19 12:11:10 51°22.702 2°52.351 -999 0.097986 0.570605 -1.279161
2009-03-19 12:12:10 51°22.585 2°52.274 -999 0.097884 0.570145 -1.279161
2009-03-19 12:13:10 51°22.469 2°52.198 -999 0.097884 0.570286 -1.279161
2009-03-19 12:14:10 51°22.353 2°52.123 -999 0.097884 0.570417 -1.279161
2009-03-19 12:15:10 51°22.236 2°52.048 -999 0.097884 0.570559 -1.279161
2009-03-19 12:16:10 51°22.119 2°51.975 -999 0.097781 0.570076 -1.279161
2009-03-19 12:17:10 51°22.002 2°51.909 -999 0.097781 0.57024 -1.279161
2009-03-19 12:18:10 51°21.885 2°51.876 -999 0.097781 0.570371 -1.244337
2009-03-19 12:19:10 51°21.781 2°51.848 -999 0.097781 0.570545 -1.279161
2009-03-19 12:20:10 51°21.718 2°51.831 -999 0.097781 0.570687 -1.279161
2009-03-19 12:21:10 51°21.675 2°51.813 -999 0.097678 0.570226 -1.279161
2009-03-19 12:22:10 51°21.629 2°51.804 -999 0.097678 0.570346 -1.279161
2009-03-19 12:23:10 51°21.53 2°51.785 -999 0.097678 0.57051 -1.279161
2009-03-19 12:24:10 51°21.367 2°51.737 -999 0.097678 0.57063 -1.244337
2009-03-19 12:25:10 51°21.165 2°51.736 -999 0.097678 0.570707 -1.279161
2009-03-19 12:26:10 51°20.952 2°51.762 -999 0.097575 0.570168 -1.279161
2009-03-19 12:27:10 51°20.738 2°51.786 -999 0.097575 0.570289 -1.279161
2009-03-19 12:28:10 51°20.524 2°51.807 -999 0.097575 0.57042 -1.279161
2009-03-19 12:29:10 51°20.311 2°51.832 -999 0.097575 0.570519 -1.279161
2009-03-19 12:30:10 51°20.097 2°51.857 -999 0.097575 0.570672 -1.279161
2009-03-19 12:31:10 51°19.882 2°51.881 -999 0.097472 0.570166 -1.279161
2009-03-19 12:32:10 51°19.668 2°51.901 -999 0.097472 0.570319 -1.279161
2009-03-19 12:33:10 51°19.452 2°51.928 -999 0.097472 0.570495 -1.279161
2009-03-19 12:34:10 51°19.236 2°51.956 -999 0.097472 0.570659 -1.279161
2009-03-19 12:35:10 51°19.022 2°51.985 -999 0.097369 0.570185 -1.279161
2009-03-19 12:36:10 51°18.809 2°52.012 -999 0.097369 0.570328 -1.279161
2009-03-19 12:37:10 51°18.598 2°52.042 -999 0.097369 0.570515 -1.279161
2009-03-19 12:38:10 51°18.387 2°52.091 -999 0.097369 0.570647 -1.279161
2009-03-19 12:39:10 51°18.175 2°52.139 -999 0.097266 0.570117 -1.279161
2009-03-19 12:40:10 51°17.963 2°52.188 -999 0.097266 0.570249 -1.279161
2009-03-19 12:41:09 51°17.755 2°52.239 -999 0.097266 0.570458 -1.279161
2009-03-19 12:42:09 51°17.543 2°52.292 -999 0.097266 0.570711 -1.279161
2009-03-19 12:43:09 51°17.331 2°52.348 -999 0.097163 0.570214 -1.279161
2009-03-19 12:44:09 51°17.128 2°52.439 -999 0.097163 0.570346 -1.279161
2009-03-19 12:45:09 51°16.931 2°52.552 -999 0.097163 0.570467 -1.244337
2009-03-19 12:46:09 51°16.736 2°52.671 -999 0.097163 0.5706 -1.279161
2009-03-19 12:47:10 51°16.537 2°52.788 -999 0.097163 0.570721 -1.279161
2009-03-19 12:48:09 51°16.341 2°52.886 -999 0.09706 0.570191 -1.279161
2009-03-19 12:49:09 51°16.142 2°52.984 -999 0.09706 0.570323 -1.279161
2009-03-19 12:50:09 51°15.95 2°53.101 -999 0.09706 0.570433 -1.279161
2009-03-19 12:51:09 51°15.757 2°53.219 -999 0.09706 0.570532 -1.279161
2009-03-19 12:52:10 51°15.562 2°53.338 -999 0.09706 0.57061 -1.279161
2009-03-19 12:53:09 51°15.374 2°53.455 -999 0.09706 0.570687 -1.279161
2009-03-19 12:54:10 51°15.204 2°53.586 -999 0.09706 0.570775 -1.279161
2009-03-19 12:55:10 51°15.072 2°53.738 -999 0.096957 0.570222 -1.279161
2009-03-19 12:56:09 51°14.947 2°53.889 -999 0.096957 0.570333 -1.279161
2009-03-19 12:57:09 51°14.835 2°54.056 -999 0.096957 0.570421 -1.279161
2009-03-19 12:58:09 51°14.733 2°54.234 -999 0.096957 0.570498 -1.279161
2009-03-19 12:59:09 51°14.631 2°54.413 -999 0.096957 0.570598 -1.279161
2009-03-19 13:00:10 51°14.535 2°54.601 -999 0.096957 0.570697 -1.279161
2009-03-19 13:01:10 51°14.449 2°54.794 -999 0.096957 0.570785 -1.279161
2009-03-19 13:02:10 51°14.371 2°54.993 -999 0.096855 0.570254 -1.244337
2009-03-19 13:03:10 51°14.29 2°55.194 -999 0.096855 0.570365 -1.279161
2009-03-19 13:04:11 51°14.22 2°55.32 -999 0.096855 0.570464 -1.279161
2009-03-19 13:05:14 51°14.154 2°55.397 -999 0.096855 0.570564 -1.279161
2009-03-19 13:06:14 51°14.065 2°55.48 -999 0.096855 0.570674 -1.279161
2009-03-19 13:07:14 51°13.955 2°55.553 -999 0.096855 0.570785 -1.279161
2009-03-19 13:08:13 51°13.843 2°55.626 -999 0.096855 0.570885 -1.279161
2009-03-19 13:09:12 51°13.756 2°55.706 -999 0.096752 0.570353 -1.279161
2009-03-19 13:10:14 51°13.703 2°55.81 -999 0.096752 0.57043 -1.279161
2009-03-19 13:11:11 51°13.675 2°55.908 -999 0.096752 0.570519 -1.279161
2009-03-19 13:12:10 51°13.665 2°55.955 -999 0.096752 0.570618 -1.279161
2009-03-19 13:13:11 51°13.663 2°55.959 -999 0.096752 0.570729 -1.279161